Wind_Speed
17 13 14 17 17 20 20 21 24 21 20 17 15 17 18 21 28 24 16 18 20 20 21 21 21 19 13 9 12 12 14 18 29 24 28 37 33 21 24 34 36 33 30 34
15 16 16 17 18 20 21 19 20 20 21 19 19 18 14 18 21 25 23 27 24 23 21 20 13 20 11 11 15 14 11 13 13 26 29 33 40 32 29 20 28 29 34 39
17 19 17 18 14 18 18 18 20 22 21 21 21 20 17 20 25 29 28 23 22 23 26 25 28 13 15 9 15 14 16 12 17 13 16 33 37 37 42 32 24 26 27 43
17 18 18 18 17 13 20 19 21 20 18 15 17 15 19 22 25 24 28 25 22 27 23 24 17 14 11 13 12 9 17 18 13 29 15 16 18 40 45 49 37 34 34 36
20 19 18 19 16 16 21 19 15 20 17 16 20 14 18 20 20 13 13 17 18 13 10 14 13 13 13 11 11 10 9 8 10 17 36 18 20 18 23 17 46 35 34 37
23 28 24 25 21 16 17 14 14 17 14 15 22 17 18 18 21 19 18 20 17 15 9 9 16 16 13 15 14 10 11 7 9 11 18 35 25 22 21 24 20 31 31 31
23 20 21 24 22 20 18 15 13 14 12 16 23 11 19 20 21 13 17 18 17 13 11 18 16 16 21 16 14 10 9 6 7 8 11 14 22 21 19 23 28 27 25 26
15 17 17 12 16 18 17 17 13 18 13 15 10 6 11 24 10 2 16 24 20 16 14 11 13 7 6 9 9 13 7 8 8 9 10 11 13 18 22 23 18 21 25 30
16 20 7 8 14 6 11 15 19 15 17 14 16 12 15 21 18 12 12 5 6 6 12 5 4 8 9 8 8 6 11 12 9 9 10 11 12 14 17 21 23 24 26 27
17 20 14 14 4 4 8 9 8 5 4 12 13 16 11 3 12 19 12 10 13 15 12 9 11 13 12 12 11 13 17 17 15 13 12 12 12 11 14 16 19 22 26 31
10 13 15 11 10 21 9 14 20 11 9 7 10 11 5 4 5 18 11 13 13 16 9 14 14 12 12 12 14 14 12 13 16 16 14 14 15 15 16 18 17 20 24 26
4 6 12 18 18 21 19 17 3 4 8 8 8 11 13 3 4 5 7 6 7 9 17 15 10 12 14 13 13 13 15 14 17 18 17 18 16 17 19 22 24 23 23 25
6 5 11 13 13 12 6 18 10 13 10 12 11 14 9 4 17 14 14 21 16 21 21 15 13 11 10 12 13 13 15 16 18 14 16 19 20 18 19 22 23 26 29 27
1 9 14 14 19 16 6 11 13 9 8 9 15 23 16 9 4 13 24 19 24 28 26 17 14 13 14 14 15 15 16 16 18 19 20 21 22 24 29 30 30 29 28 30
6 12 15 18 20 22 22 23 18 21 21 17 18 20 20 17 12 20 23 25 20 29 46 31 14 11 15 16 17 18 18 19 19 20 22 23 25 28 30 31 32 33 31 29
9 15 15 20 22 22 25 23 21 22 22 23 25 25 20 22 27 20 26 33 26 35 22 13 12 7 14 15 16 17 16 16 19 24 27 27 30 31 33 33 34 35 34 33
13 9 10 15 16 18 14 20 17 18 18 14 17 23 21 22 16 12 14 17 11 12 12 11 38 17 12 13 18 21 22 25 27 28 29 29 33 36 38 38 36 38 37 33
12 10 8 12 15 13 7 15 9 2 15 12 6 17 11 17 28 20 13 14 21 16 18 23 19 19 21 23 25 25 26 27 28 30 31 32 34 37 39 40 40 39 37 36
8 5 3 4 9 17 17 10 15 13 13 14 19 20 20 22 22 14 17 10 15 23 23 24 27 29 30 29 28 31 34 34 34 37 40 42 43 42 40 38 41 41 37 37
5 4 5 7 5 7 9 15 17 17 12 17 20 19 22 29 15 13 30 36 33 31 31 29 29 31 31 32 34 33 34 35 35 35 35 35 39 42 41 41 41 40 38 37
6 3 10 10 7 8 11 20 22 9 11 28 28 28 27 16 19 34 35 36 35 36 37 37 37 35 37 33 29 32 33 35 39 42 40 40 38 40 45 36 40 37 35 35
5 4 4 6 5 6 18 9 11 15 26 27 27 25 28 31 35 36 37 38 38 41 41 39 38 37 36 33 33 36 35 43 39 36 35 35 36 38 40 38 34 38 41 42
4 2 3 4 5 19 21 21 25 24 27 28 30 31 35 37 36 39 38 44 45 44 40 37 36 38 34 32 31 32 36 38 34 32 33 33 35 37 34 39 38 39 39 38
9 12 6 10 5 17 33 23 27 30 35 39 40 40 39 41 41 39 47 41 37 38 37 36 34 31 31 28 30 33 34 33 31 31 32 30 32 34 35 36 35 36 37 37
4 10 8 14 14 32 16 27 30 36 39 38 40 37 43 43 36 39 37 39 37 35 36 33 32 35 36 31 31 32 31 29 34 33 30 31 30 33 37 34 35 35 38 35
3 3 3 4 23 18 25 35 41 40 35 34 41 41 41 34 35 36 37 35 33 35 34 32 31 35 37 32 31 34 34 30 29 30 32 31 28 29 32 33 29 35 30 31
Wind_Direction
254 243 251 247 254 256 265 269 283 291 295 306 244 236 250 252 256 257 228 229 243 242 245 254 197 193 190 216 236 218 216 209 211 220 232 230 235 250 258 243 230 228 229 244
241 249 259 263 263 277 279 280 282 287 278 280 276 263 258 263 269 267 223 223 226 236 232 237 197 192 201 230 234 230 211 217 222 218 223 230 232 234 255 259 241 241 233 242
258 277 290 292 279 282 269 266 273 276 279 269 255 259 258 266 264 264 257 233 232 226 218 224 228 209 209 224 253 239 235 218 212 221 230 238 234 232 236 252 276 269 255 243
270 279 290 292 284 274 272 272 262 261 262 266 272 268 253 251 232 239 238 243 241 236 237 211 201 223 222 227 235 242 252 247 228 234 219 219 234 230 236 244 256 271 274 255
271 270 262 272 257 264 274 268 294 301 287 284 257 264 268 277 276 249 215 226 234 230 209 215 199 216 228 221 225 232 250 242 229 224 230 245 239 242 231 240 230 259 254 263
272 271 274 275 265 261 264 278 281 284 284 269 263 259 267 265 260 255 204 197 202 205 187 215 199 198 209 234 230 236 240 221 237 230 236 231 244 233 231 222 219 227 238 251
265 286 289 274 265 277 248 252 257 249 245 258 261 316 280 258 238 291 150 169 168 186 209 182 200 206 209 205 216 242 260 250 264 254 240 226 223 242 245 239 230 234 228 232
274 292 298 346 328 281 273 295 243 254 258 259 245 261 255 328 197 188 166 170 183 188 208 189 218 202 219 214 231 211 219 266 268 266 256 267 259 254 256 262 260 255 250 245
292 273 294 180 221 251 264 252 277 276 285 277 268 244 280 279 301 185 177 171 183 191 209 185 206 233 231 242 236 243 234 238 250 263 276 275 267 263 264 259 251 249 251 250
300 298 298 315 23 280 199 275 287 219 241 246 261 249 235 269 264 275 185 201 206 191 197 207 239 252 253 246 240 234 243 245 236 251 260 273 278 268 270 282 283 273 261 253
308 300 298 344 285 284 217 223 249 301 238 259 283 283 57 327 177 230 213 206 192 212 208 235 255 268 267 254 247 249 242 248 256 251 247 256 261 263 258 260 268 272 274 268
201 264 272 282 258 279 302 276 290 184 296 286 258 254 286 212 224 332 257 234 224 227 237 239 237 250 268 268 268 263 264 260 269 266 260 262 262 265 266 265 263 263 263 266
1 302 317 322 297 36 20 304 294 320 257 216 241 270 274 44 299 275 261 245 231 238 244 242 242 235 253 274 277 268 274 276 276 275 269 275 276 275 270 268 268 266 265 265
126 282 275 275 285 306 211 242 271 196 255 262 259 281 285 157 234 276 291 279 315 303 286 247 223 231 234 248 258 274 283 280 277 276 272 273 275 275 269 268 272 276 272 270
233 273 282 285 284 285 292 292 255 261 279 273 268 270 276 284 206 238 233 266 295 283 275 246 216 251 244 249 250 257 258 260 268 277 279 280 280 281 283 282 277 276 276 270
276 267 273 282 284 284 280 295 287 278 268 265 268 262 261 266 265 250 234 238 242 264 301 311 259 234 271 281 281 281 288 280 270 269 270 282 282 283 283 279 275 274 272 269
291 306 312 282 288 305 277 260 274 291 304 301 298 299 326 329 270 287 331 330 308 284 274 310 287 299 300 304 296 298 295 290 281 276 274 274 277 276 278 279 273 269 269 269
268 274 288 283 299 283 282 320 295 151 281 300 241 253 280 338 326 324 280 321 306 288 305 324 323 310 304 302 294 289 287 283 280 277 274 273 275 275 269 270 268 266 264 265
232 274 275 262 264 289 298 360 321 326 324 24 0 348 348 336 325 281 243 14 316 299 311 306 300 300 298 293 290 284 281 281 278 275 273 272 273 265 266 264 260 263 259 260
203 233 216 281 273 279 313 24 352 340 281 9 343 335 331 331 319 315 326 319 314 308 305 296 294 290 284 284 282 283 280 277 272 271 268 264 262 261 260 263 256 258 257 256
203 220 227 247 254 273 18 348 329 304 331 333 331 327 328 315 301 306 309 306 304 304 299 294 288 284 284 280 277 278 274 269 270 271 271 270 263 258 254 267 252 253 253 259
189 240 217 251 245 263 10 357 359 311 312 316 317 315 313 307 300 296 296 296 300 299 295 292 289 284 283 283 282 279 267 275 280 279 271 266 262 259 259 258 255 253 252 258
360 11 276 294 298 316 350 333 329 350 334 325 319 316 308 304 305 306 302 302 296 289 288 289 286 284 282 278 275 269 270 281 281 277 269 264 258 254 241 248 254 253 250 251
321 15 342 331 310 343 335 338 337 326 317 308 307 308 301 305 301 295 299 292 287 286 286 284 281 277 278 276 272 272 275 282 282 272 268 265 262 256 249 254 253 250 248 254
4 339 336 291 304 336 314 319 316 316 316 309 303 301 304 298 294 299 293 289 284 283 284 282 281 281 279 280 278 276 278 274 275 267 265 260 257 256 254 259 258 246 253 227
359 336 310 286 308 301 293 304 310 310 313 319 319 312 311 296 300 297 292 289 287 287 286 281 276 278 280 279 275 273 274 273 270 266 262 256 256 253 258 259 246 232 219 199
Height
1463 1462 1458 1450 1445 1442 1440 1439 1436 1427 1420 1421 1418 1423 1426 1428 1427 1426 1428 1435 1439 1442 1447 1449 1448 1449 1453 1458 1459 1462 1461 1460 1465 1467 1469 1473 1475 1476 1487 1492 1493 1499 1500 1500
1459 1456 1446 1444 1443 1442 1439 1439 1438 1431 1426 1425 1422 1421 1424 1426 1423 1421 1423 1429 1433 1438 1442 1444 1448 1448 1451 1456 1457 1460 1460 1459 1459 1464 1466 1470 1473 1475 1483 1488 1488 1488 1494 1497
1453 1445 1437 1437 1440 1442 1438 1442 1442 1438 1426 1419 1419 1422 1423 1422 1421 1417 1416 1419 1424 1430 1434 1440 1443 1447 1450 1453 1456 1456 1458 1457 1451 1460 1460 1468 1468 1470 1478 1479 1476 1483 1487 1492
1445 1440 1438 1436 1438 1439 1443 1433 1430 1430 1432 1436 1416 1429 1416 1410 1408 1406 1410 1413 1418 1424 1426 1431 1437 1443 1447 1453 1455 1454 1450 1450 1449 1456 1459 1462 1463 1466 1470 1471 1474 1480 1480 1488
1442 1438 1437 1434 1436 1436 1436 1430 1431 1429 1429 1428 1425 1431 1416 1408 1404 1399 1401 1408 1413 1418 1424 1429 1436 1442 1447 1451 1452 1452 1448 1449 1451 1453 1452 1457 1461 1463 1463 1466 1470 1477 1478 1478
1439 1437 1433 1430 1425 1428 1429 1431 1433 1433 1434 1441 1425 1425 1413 1408 1398 1391 1391 1403 1410 1417 1423 1429 1433 1439 1444 1447 1447 1447 1448 1447 1446 1449 1449 1446 1458 1458 1459 1460 1463 1468 1471 1472
1429 1430 1429 1426 1422 1425 1427 1434 1445 1446 1442 1442 1421 1432 1407 1392 1384 1381 1387 1400 1408 1417 1423 1427 1432 1435 1436 1440 1442 1443 1442 1443 1444 1446 1449 1447 1446 1451 1451 1455 1459 1461 1461 1465
1445 1450 1431 1440 1447 1432 1432 1439 1433 1446 1439 1426 1411 1440 1406 1394 1387 1388 1388 1397 1407 1414 1420 1423 1428 1430 1434 1436 1437 1439 1442 1442 1443 1442 1443 1441 1440 1442 1444 1449 1449 1451 1452 1455
1438 1437 1426 1436 1435 1434 1436 1444 1431 1427 1423 1421 1413 1420 1408 1398 1391 1388 1395 1402 1407 1412 1418 1422 1426 1430 1432 1434 1435 1437 1439 1440 1440 1440 1441 1439 1438 1440 1442 1445 1446 1442 1444 1446
1433 1433 1424 1426 1434 1438 1441 1439 1450 1451 1454 1442 1411 1400 1403 1399 1408 1393 1394 1401 1407 1412 1417 1421 1425 1427 1428 1430 1431 1433 1434 1435 1436 1438 1437 1436 1436 1437 1439 1438 1436 1437 1439 1442
1437 1438 1435 1436 1433 1430 1430 1437 1426 1420 1422 1433 1430 1413 1398 1402 1392 1398 1395 1400 1406 1411 1413 1418 1420 1421 1423 1424 1425 1427 1428 1430 1431 1431 1433 1434 1434 1435 1435 1435 1433 1434 1435 1434
1441 1454 1443 1432 1425 1422 1417 1419 1423 1450 1440 1425 1431 1422 1399 1401 1399 1398 1398 1400 1404 1406 1410 1410 1413 1416 1419 1420 1421 1422 1423 1425 1426 1427 1428 1428 1429 1429 1429 1428 1428 1430 1430 1430
1438 1441 1446 1437 1420 1432 1448 1450 1441 1449 1435 1437 1448 1408 1399 1411 1406 1407 1403 1403 1402 1403 1403 1403 1405 1408 1413 1415 1416 1417 1417 1419 1420 1420 1420 1421 1422 1423 1424 1424 1423 1423 1422 1421
1441 1441 1444 1444 1433 1428 1444 1441 1427 1437 1433 1417 1409 1398 1394 1400 1411 1410 1406 1403 1403 1402 1398 1396 1398 1402 1404 1408 1411 1412 1413 1414 1415 1415 1416 1415 1416 1416 1417 1414 1413 1414 1413 1412
1438 1440 1435 1429 1424 1420 1416 1411 1409 1409 1401 1403 1399 1401 1392 1393 1397 1401 1401 1401 1399 1402 1404 1392 1389 1395 1399 1401 1403 1404 1406 1406 1408 1408 1408 1408 1407 1407 1405 1405 1404 1404 1404 1405
1432 1436 1432 1430 1423 1417 1412 1405 1400 1396 1391 1388 1386 1382 1382 1383 1384 1385 1389 1392 1392 1398 1388 1384 1388 1387 1394 1395 1396 1396 1398 1399 1400 1400 1400 1401 1400 1399 1399 1399 1396 1395 1395 1395
1434 1433 1439 1434 1419 1412 1414 1402 1396 1397 1390 1388 1390 1384 1384 1385 1377 1379 1383 1387 1392 1389 1386 1381 1387 1384 1386 1386 1388 1389 1391 1392 1393 1392 1392 1393 1394 1394 1391 1390 1390 1388 1387 1388
1435 1436 1437 1436 1428 1428 1396 1391 1389 1401 1411 1396 1398 1397 1390 1390 1391 1389 1386 1385 1391 1389 1390 1386 1381 1380 1379 1379 1381 1381 1382 1382 1382 1382 1382 1382 1384 1384 1384 1381 1379 1378 1378 1377
1431 1437 1447 1441 1429 1412 1399 1402 1398 1391 1393 1386 1390 1389 1389 1390 1390 1383 1384 1384 1390 1387 1384 1382 1381 1375 1372 1372 1372 1372 1371 1372 1372 1371 1370 1370 1372 1372 1372 1371 1369 1368 1369 1369
1432 1437 1445 1435 1437 1422 1397 1403 1404 1406 1392 1397 1399 1396 1392 1388 1380 1377 1381 1377 1377 1377 1376 1373 1370 1367 1365 1363 1363 1362 1360 1360 1359 1359 1358 1357 1358 1357 1358 1359 1359 1359 1359 1359
1434 1439 1441 1432 1430 1414 1403 1407 1400 1400 1405 1399 1398 1396 1393 1391 1389 1380 1377 1373 1371 1368 1365 1363 1360 1356 1355 1354 1352 1350 1349 1347 1346 1346 1345 1343 1343 1344 1345 1346 1348 1349 1349 1348
1428 1430 1426 1423 1423 1421 1413 1412 1417 1415 1406 1402 1398 1395 1391 1388 1382 1377 1373 1368 1364 1359 1355 1354 1349 1345 1344 1344 1343 1340 1338 1336 1335 1333 1332 1331 1332 1333 1335 1336 1337 1338 1339 1339
1424 1427 1430 1425 1417 1412 1416 1416 1412 1409 1406 1401 1396 1392 1388 1380 1374 1369 1363 1359 1355 1350 1345 1342 1338 1335 1333 1333 1333 1330 1326 1326 1324 1322 1321 1322 1323 1324 1325 1327 1327 1328 1330 1330
1422 1423 1425 1426 1412 1414 1415 1411 1411 1410 1405 1399 1394 1388 1381 1373 1367 1360 1354 1349 1343 1338 1335 1331 1329 1325 1323 1323 1322 1320 1317 1316 1314 1313 1312 1313 1314 1314 1316 1317 1317 1318 1318 1319
1437 1434 1438 1425 1417 1418 1414 1413 1410 1404 1398 1391 1385 1380 1372 1363 1355 1350 1343 1338 1332 1328 1325 1323 1318 1315 1313 1313 1311 1308 1306 1306 1305 1303 1303 1303 1305 1304 1306 1307 1307 1306 1307 1312
1442 1442 1440 1432 1430 1428 1418 1410 1405 1397 1390 1385 1377 1367 1361 1353 1345 1340 1332 1327 1322 1317 1314 1311 1307 1304 1302 1302 1298 1295 1295 1295 1295 1295 1293 1294 1296 1296 1297 1295 1295 1295 1301 1307